Weather in Novy Koshkul'

Russia / Omsk Oblast     55°59′29″N   72°20′13″E
temp.,
°C
wind,
m/s
gust,
m/s
humid.,
%
clouds,
%
prec.,
mm/h
press.,
hPa
HPBL,
m
16 june, wed
wed1600:00+20wsw41066100 0.0 1012202
03:00+19sw4870100 0.1 1011150
06:00+17wnw410865 0.1 1012281
09:00+21nw567416 0.0 1013514
12:00+24wnw5660100 0.0 10131154
15:00+27wnw6848100 0.1 10122306
18:00+25wnw4760100 0.1 10111209
21:00+21wnw347585 0.0 101155
17 june, thu
thu1700:00+18nw117762 0.0 101111
03:00+18sw11725 0.0 101111
06:00+18sw238332 0.0 101058
09:00+23w46645 0.0 1010406
12:00+27wsw56515 0.0 10091374
15:00+29wsw69445 0.0 10072272
18:00+28w59505 0.0 10041578
21:00+24s46660 0.0 100380
18 june, fri
fri1800:00+21ssw818605 0.0 1002382
03:00+16wsw488789 0.3 1002147
06:00+17wnw369478 0.3 1001159
09:00+17nw5793100 0.1 1002479
12:00+10nnw71196100 4.3 1004520
15:00+8nnw81292100 0.7 1007686
18:00+9n71581100 0.7 1009972
21:00+10n6136715 0.0 1010903
19 june, sat
sat1900:00+6nnw37860 0.0 1012135
03:00+6nw411905 0.0 1012201
06:00+7nnw511713 0.0 1013286
09:00+13nnw611545 0.0 10131564
12:00+15nnw7104191 0.0 10132524
15:00+16nnw7103995 0.0 10122418
18:00+17nnw610425 0.0 10122754
21:00+13nw34645 0.0 101162
20 june, sun
sun2000:00+9w22635 0.0 101110
03:00+8sw33672 0.0 100926
06:00+9wsw357852 0.0 1007117
09:00+16w4765100 0.0 1005663
12:00+15ssw796525 0.0 1002862
15:00+12sw4897100 4.0 999443
18:00+10nnw101593100 7.5 1001786
21:00+8nnw71488100 0.1 1002898